Time,TemperatureF,DewpointF,PressureIn,WindDirection,WindDirectionDegrees,WindSpeedMPH,WindSpeedGustMPH,Humidity,HourlyPrecipIn,Conditions,Clouds,dailyrainin,SoftwareType,DateUTC
2013-08-23 00:01:00,71.1,71.1,29.85,NNE,32,1.0,7.0,100,0.00,,,0.00,VWS V14.01,2013-08-23 05:01:00,
2013-08-23 00:06:00,71.1,71.1,29.86,NNE,32,2.0,5.0,100,0.00,,,0.00,VWS V14.01,2013-08-23 05:06:00,
2013-08-23 00:11:00,70.9,70.9,29.86,NE,38,3.0,7.0,100,0.00,,,0.00,VWS V14.01,2013-08-23 05:11:00,
2013-08-23 00:16:00,70.9,70.9,29.86,NE,40,2.0,7.0,100,0.00,,,0.00,VWS V14.01,2013-08-23 05:16:00,
2013-08-23 00:21:00,71.1,71.1,29.85,NE,40,0.0,5.0,100,0.00,,,0.00,VWS V14.01,2013-08-23 05:21:00,
2013-08-23 00:26:00,71.1,71.1,29.85,NE,40,2.0,5.0,100,0.00,,,0.00,VWS V14.01,2013-08-23 05:26:00,
2013-08-23 00:31:00,71.1,71.1,29.85,NE,38,0.0,5.0,100,0.00,,,0.00,VWS V14.01,2013-08-23 05:31:00,
2013-08-23 00:36:00,71.1,71.1,29.85,NE,41,0.0,5.0,100,0.00,,,0.00,VWS V14.01,2013-08-23 05:36:00,
2013-08-23 00:41:00,70.9,70.9,29.85,NE,41,0.0,5.0,100,0.00,,,0.00,VWS V14.01,2013-08-23 05:41:00,
2013-08-23 00:46:00,71.1,71.1,29.85,NE,41,0.0,5.0,100,0.00,,,0.00,VWS V14.01,2013-08-23 05:46:00,
2013-08-23 00:51:00,70.9,70.9,29.85,NE,41,2.0,5.0,100,0.00,,,0.00,VWS V14.01,2013-08-23 05:51:00,
2013-08-23 00:56:00,70.9,70.9,29.85,ENE,58,0.0,7.0,100,0.00,,,0.00,VWS V14.01,2013-08-23 05:56:00,
2013-08-23 01:01:00,70.9,70.9,29.85,NE,55,2.0,7.0,100,0.00,,,0.00,VWS V14.01,2013-08-23 06:01:00,
2013-08-23 01:06:00,70.9,70.9,29.85,NE,55,0.0,2.0,100,0.00,,,0.00,VWS V14.01,2013-08-23 06:06:00,
2013-08-23 01:11:00,70.8,70.8,29.85,NE,55,0.0,2.0,100,0.00,,,0.00,VWS V14.01,2013-08-23 06:11:00,
2013-08-23 01:16:00,70.6,70.6,29.85,NE,55,0.0,2.0,100,0.00,,,0.00,VWS V14.01,2013-08-23 06:16:00,
2013-08-23 01:21:00,70.6,70.6,29.85,NE,55,0.0,3.0,100,0.00,,,0.00,VWS V14.01,2013-08-23 06:21:00,
2013-08-23 01:26:00,70.6,70.6,29.85,NE,55,0.0,3.0,100,0.00,,,0.00,VWS V14.01,2013-08-23 06:26:00,
2013-08-23 01:31:00,70.4,70.4,29.85,NE,55,0.0,3.0,100,0.00,,,0.00,VWS V14.01,2013-08-23 06:31:00,
2013-08-23 01:36:00,70.4,70.4,29.85,NE,55,0.0,0.0,100,0.00,,,0.00,VWS V14.01,2013-08-23 06:36:00,
2013-08-23 01:41:00,70.3,70.3,29.85,NE,55,0.0,1.0,100,0.00,,,0.00,VWS V14.01,2013-08-23 06:41:00,
2013-08-23 01:46:00,70.3,70.3,29.85,NE,55,0.0,1.0,100,0.00,,,0.00,VWS V14.01,2013-08-23 06:46:00,
2013-08-23 01:51:00,70.1,70.1,29.85,NE,55,0.0,1.0,100,0.00,,,0.00,VWS V14.01,2013-08-23 06:51:00,
2013-08-23 01:56:00,70.1,70.1,29.85,SSW,192,2.0,3.0,100,0.00,,,0.00,VWS V14.01,2013-08-23 06:56:00,
2013-08-23 02:01:00,69.9,69.9,29.85,South,179,0.0,5.0,100,0.00,,,0.00,VWS V14.01,2013-08-23 07:01:00,
2013-08-23 02:06:00,69.9,69.9,29.85,South,179,0.0,2.0,100,0.00,,,0.00,VWS V14.01,2013-08-23 07:06:00,
2013-08-23 02:11:00,69.9,69.9,29.85,South,179,0.0,2.0,100,0.00,,,0.00,VWS V14.01,2013-08-23 07:11:00,
2013-08-23 02:16:00,69.9,69.9,29.85,South,181,0.0,3.0,100,0.00,,,0.00,VWS V14.01,2013-08-23 07:16:00,
2013-08-23 02:21:00,69.9,69.9,29.85,South,181,2.0,2.0,100,0.00,,,0.00,VWS V14.01,2013-08-23 07:21:00,
2013-08-23 02:26:00,69.9,69.9,29.85,South,181,0.0,2.0,100,0.00,,,0.00,VWS V14.01,2013-08-23 07:26:00,
2013-08-23 02:31:00,69.9,69.9,29.85,South,181,2.0,2.0,100,0.00,,,0.00,VWS V14.01,2013-08-23 07:31:00,
2013-08-23 02:36:00,69.9,69.9,29.85,South,181,1.0,2.0,100,0.00,,,0.00,VWS V14.01,2013-08-23 07:36:00,
2013-08-23 02:41:00,69.9,69.9,29.85,South,181,0.0,2.0,100,0.00,,,0.00,VWS V14.01,2013-08-23 07:41:00,
2013-08-23 02:46:00,69.9,69.9,29.85,South,181,0.0,2.0,100,0.00,,,0.00,VWS V14.01,2013-08-23 07:46:00,
2013-08-23 02:51:00,70.1,70.1,29.85,South,181,0.0,0.0,100,0.00,,,0.00,VWS V14.01,2013-08-23 07:51:00,
2013-08-23 02:56:00,70.1,70.1,29.85,South,179,0.0,5.0,100,0.00,,,0.00,VWS V14.01,2013-08-23 07:56:00,
2013-08-23 03:01:00,70.1,70.1,29.85,South,179,0.0,5.0,100,0.00,,,0.00,VWS V14.01,2013-08-23 08:01:00,
2013-08-23 03:06:00,70.1,70.1,29.85,South,179,0.0,2.0,100,0.00,,,0.00,VWS V14.01,2013-08-23 08:06:00,
2013-08-23 03:11:00,70.1,70.1,29.85,South,179,2.0,2.0,100,0.00,,,0.00,VWS V14.01,2013-08-23 08:11:00,
2013-08-23 03:16:00,70.1,70.1,29.85,South,179,0.0,3.0,100,0.00,,,0.00,VWS V14.01,2013-08-23 08:16:00,
2013-08-23 03:21:00,69.9,69.9,29.84,South,179,0.0,2.0,100,0.00,,,0.00,VWS V14.01,2013-08-23 08:21:00,
2013-08-23 03:26:00,69.8,69.8,29.84,South,179,0.0,2.0,100,0.00,,,0.00,VWS V14.01,2013-08-23 08:26:00,
2013-08-23 03:31:00,69.6,69.6,29.84,South,179,0.0,2.0,100,0.00,,,0.00,VWS V14.01,2013-08-23 08:31:00,
2013-08-23 03:36:00,69.6,69.6,29.83,South,179,0.0,2.0,100,0.00,,,0.00,VWS V14.01,2013-08-23 08:36:00,
2013-08-23 03:41:00,69.4,69.4,29.83,South,179,0.0,2.0,100,0.00,,,0.00,VWS V14.01,2013-08-23 08:41:00,
2013-08-23 03:46:00,69.4,69.4,29.83,South,179,1.0,2.0,100,0.00,,,0.00,VWS V14.01,2013-08-23 08:46:00,
2013-08-23 03:51:00,69.3,69.3,29.83,South,179,2.0,2.0,100,0.00,,,0.00,VWS V14.01,2013-08-23 08:51:00,
2013-08-23 03:56:00,69.1,69.1,29.83,South,179,1.0,2.0,100,0.00,,,0.00,VWS V14.01,2013-08-23 08:56:00,
2013-08-23 04:01:00,69.1,69.1,29.83,South,179,2.0,2.0,100,0.00,,,0.00,VWS V14.01,2013-08-23 09:01:00,
2013-08-23 04:06:00,68.9,68.9,29.82,South,179,1.0,2.0,100,0.00,,,0.00,VWS V14.01,2013-08-23 09:06:00,
2013-08-23 04:11:00,68.9,68.9,29.82,South,179,0.0,2.0,100,0.00,,,0.00,VWS V14.01,2013-08-23 09:11:00,
2013-08-23 04:16:00,68.9,68.9,29.82,South,179,0.0,2.0,100,0.00,,,0.00,VWS V14.01,2013-08-23 09:16:00,
2013-08-23 04:21:00,68.9,68.9,29.82,South,179,0.0,1.0,100,0.00,,,0.00,VWS V14.01,2013-08-23 09:21:00,
2013-08-23 04:26:00,68.9,68.9,29.82,South,179,0.0,2.0,100,0.00,,,0.00,VWS V14.01,2013-08-23 09:26:00,
2013-08-23 04:31:00,68.9,68.9,29.82,South,179,1.0,2.0,100,0.00,,,0.00,VWS V14.01,2013-08-23 09:31:00,
2013-08-23 04:36:00,68.8,68.8,29.82,South,179,0.0,4.0,100,0.00,,,0.00,VWS V14.01,2013-08-23 09:36:00,
2013-08-23 04:41:00,68.8,68.8,29.82,South,179,0.0,4.0,100,0.00,,,0.00,VWS V14.01,2013-08-23 09:41:00,
2013-08-23 04:46:00,68.8,68.8,29.82,South,179,0.0,4.0,100,0.00,,,0.00,VWS V14.01,2013-08-23 09:46:00,
2013-08-23 04:51:00,68.8,68.8,29.81,South,179,0.0,2.0,100,0.00,,,0.00,VWS V14.01,2013-08-23 09:51:00,
2013-08-23 04:56:00,68.6,68.6,29.81,South,179,2.0,2.0,100,0.00,,,0.00,VWS V14.01,2013-08-23 09:56:00,
2013-08-23 05:01:00,68.6,68.6,29.81,South,179,0.0,2.0,100,0.00,,,0.00,VWS V14.01,2013-08-23 10:01:00,
2013-08-23 05:06:00,68.4,68.4,29.81,South,179,0.0,2.0,100,0.00,,,0.00,VWS V14.01,2013-08-23 10:06:00,
2013-08-23 05:11:00,68.4,68.4,29.81,South,179,0.0,2.0,100,0.00,,,0.00,VWS V14.01,2013-08-23 10:11:00,
2013-08-23 05:16:00,68.4,68.4,29.81,South,179,2.0,2.0,100,0.00,,,0.00,VWS V14.01,2013-08-23 10:16:00,
2013-08-23 05:21:00,68.4,68.4,29.82,South,179,0.0,1.0,100,0.00,,,0.00,VWS V14.01,2013-08-23 10:21:00,
2013-08-23 05:26:00,68.4,68.4,29.82,South,179,0.0,3.0,100,0.00,,,0.00,VWS V14.01,2013-08-23 10:26:00,
2013-08-23 05:31:00,68.4,68.4,29.82,South,179,0.0,3.0,100,0.00,,,0.00,VWS V14.01,2013-08-23 10:31:00,
2013-08-23 05:36:00,68.4,68.4,29.81,South,179,0.0,2.0,100,0.00,,,0.00,VWS V14.01,2013-08-23 10:36:00,
2013-08-23 05:41:00,68.6,68.6,29.81,South,179,0.0,2.0,100,0.00,,,0.00,VWS V14.01,2013-08-23 10:41:00,
2013-08-23 05:46:00,68.6,68.6,29.81,South,179,0.0,2.0,100,0.00,,,0.00,VWS V14.01,2013-08-23 10:46:00,
2013-08-23 05:51:00,68.6,68.6,29.81,South,179,0.0,1.0,100,0.00,,,0.00,VWS V14.01,2013-08-23 10:51:00,
2013-08-23 05:56:00,68.6,68.6,29.81,South,179,0.0,1.0,100,0.00,,,0.00,VWS V14.01,2013-08-23 10:56:00,
2013-08-23 06:01:00,68.6,68.6,29.81,South,179,1.0,2.0,100,0.00,,,0.00,VWS V14.01,2013-08-23 11:01:00,
2013-08-23 06:06:00,68.6,68.6,29.82,South,179,2.0,3.0,100,0.00,,,0.00,VWS V14.01,2013-08-23 11:06:00,
2013-08-23 06:11:00,68.4,68.4,29.82,South,179,1.0,3.0,100,0.00,,,0.00,VWS V14.01,2013-08-23 11:11:00,
2013-08-23 06:16:00,68.4,68.4,29.82,South,179,2.0,3.0,100,0.00,,,0.00,VWS V14.01,2013-08-23 11:16:00,
2013-08-23 06:21:00,68.3,68.3,29.84,South,172,2.0,6.0,100,0.00,,,0.00,VWS V14.01,2013-08-23 11:21:00,
2013-08-23 06:26:00,68.3,68.3,29.84,South,172,3.0,6.0,100,0.00,,,0.00,VWS V14.01,2013-08-23 11:26:00,
2013-08-23 06:31:00,68.4,68.4,29.84,South,172,2.0,6.0,100,0.00,,,0.00,VWS V14.01,2013-08-23 11:31:00,
2013-08-23 06:36:00,68.6,68.6,29.84,South,172,2.0,6.0,100,0.00,,,0.00,VWS V14.01,2013-08-23 11:36:00,
2013-08-23 06:41:00,68.8,68.8,29.84,South,172,3.0,6.0,100,0.00,,,0.00,VWS V14.01,2013-08-23 11:41:00,
2013-08-23 06:46:00,69.1,69.1,29.84,South,172,2.0,7.0,100,0.00,,,0.00,VWS V14.01,2013-08-23 11:46:00,
2013-08-23 06:51:00,69.3,69.3,29.82,South,172,2.0,6.0,100,0.00,,,0.00,VWS V14.01,2013-08-23 11:51:00,
2013-08-23 06:56:00,69.3,69.3,29.82,South,172,2.0,6.0,100,0.00,,,0.00,VWS V14.01,2013-08-23 11:56:00,
2013-08-23 07:01:00,69.4,69.4,29.82,South,171,5.0,6.0,100,0.00,,,0.00,VWS V14.01,2013-08-23 12:01:00,
2013-08-23 07:06:00,69.4,69.4,29.82,SSE,168,2.0,6.0,100,0.00,,,0.00,VWS V14.01,2013-08-23 12:06:00,
2013-08-23 07:11:00,69.4,69.4,29.82,South,179,7.0,7.0,100,0.00,,,0.00,VWS V14.01,2013-08-23 12:11:00,
2013-08-23 07:16:00,69.6,69.6,29.82,South,181,3.0,7.0,100,0.00,,,0.00,VWS V14.01,2013-08-23 12:16:00,
2013-08-23 07:21:00,69.6,69.6,29.82,South,186,8.0,8.0,100,0.00,,,0.00,VWS V14.01,2013-08-23 12:21:00,
2013-08-23 07:26:00,69.6,69.6,29.82,SSW,195,3.0,8.0,100,0.00,,,0.00,VWS V14.01,2013-08-23 12:26:00,
2013-08-23 07:31:00,69.8,69.8,29.82,South,188,5.0,8.0,100,0.00,,,0.00,VWS V14.01,2013-08-23 12:31:00,
2013-08-23 07:36:00,69.8,69.8,29.83,South,188,2.0,7.0,100,0.00,,,0.00,VWS V14.01,2013-08-23 12:36:00,
2013-08-23 07:41:00,69.9,69.9,29.83,South,188,5.0,7.0,100,0.00,,,0.00,VWS V14.01,2013-08-23 12:41:00,
2013-08-23 07:46:00,69.9,69.9,29.83,South,188,3.0,7.0,100,0.00,,,0.00,VWS V14.01,2013-08-23 12:46:00,
2013-08-23 07:51:00,70.1,70.1,29.83,South,188,2.0,5.0,100,0.00,,,0.00,VWS V14.01,2013-08-23 12:51:00,
2013-08-23 07:56:00,70.1,70.1,29.83,South,188,2.0,7.0,100,0.00,,,0.00,VWS V14.01,2013-08-23 12:56:00,
2013-08-23 08:01:00,70.3,70.3,29.83,South,185,3.0,7.0,100,0.00,,,0.00,VWS V14.01,2013-08-23 13:01:00,
2013-08-23 08:06:00,70.3,70.3,29.83,SSE,165,4.0,6.0,100,0.00,,,0.00,VWS V14.01,2013-08-23 13:06:00,
2013-08-23 08:11:00,70.4,70.4,29.83,SSE,165,4.0,6.0,100,0.00,,,0.00,VWS V14.01,2013-08-23 13:11:00,
2013-08-23 08:16:00,70.6,70.6,29.83,SSE,167,5.0,6.0,100,0.00,,,0.00,VWS V14.01,2013-08-23 13:16:00,
2013-08-23 08:21:00,70.8,70.8,29.83,South,185,5.0,7.0,100,0.00,,,0.00,VWS V14.01,2013-08-23 13:21:00,
2013-08-23 08:26:00,71.1,71.1,29.83,South,185,3.0,7.0,100,0.00,,,0.00,VWS V14.01,2013-08-23 13:26:00,
2013-08-23 08:31:00,71.3,71.3,29.83,South,185,4.0,7.0,100,0.00,,,0.00,VWS V14.01,2013-08-23 13:31:00,
2013-08-23 08:36:00,71.6,71.6,29.82,SSW,200,5.0,7.0,100,0.00,,,0.00,VWS V14.01,2013-08-23 13:36:00,
2013-08-23 08:41:00,72.0,72.0,29.82,South,185,5.0,10.0,100,0.00,,,0.00,VWS V14.01,2013-08-23 13:41:00,
2013-08-23 08:46:00,72.1,72.1,29.82,South,185,4.0,10.0,100,0.00,,,0.00,VWS V14.01,2013-08-23 13:46:00,
2013-08-23 08:51:00,72.5,72.5,29.82,SSW,212,7.0,10.0,100,0.00,,,0.00,VWS V14.01,2013-08-23 13:51:00,
2013-08-23 08:56:00,72.8,72.8,29.82,SSW,213,5.0,10.0,100,0.00,,,0.00,VWS V14.01,2013-08-23 13:56:00,
2013-08-23 09:01:00,72.8,72.8,29.82,SSW,202,2.0,10.0,100,0.00,,,0.00,VWS V14.01,2013-08-23 14:01:00,
2013-08-23 09:06:00,73.0,73.0,29.81,SSW,203,7.0,8.0,100,0.00,,,0.00,VWS V14.01,2013-08-23 14:06:00,
2013-08-23 09:11:00,73.0,72.1,29.81,SSW,198,7.0,8.0,97,0.00,,,0.00,VWS V14.01,2013-08-23 14:11:00,
2013-08-23 09:16:00,73.2,72.0,29.81,SSW,198,5.0,8.0,96,0.00,,,0.00,VWS V14.01,2013-08-23 14:16:00,
2013-08-23 09:21:00,73.3,71.5,29.80,SSW,198,5.0,7.0,94,0.00,,,0.00,VWS V14.01,2013-08-23 14:21:00,
2013-08-23 09:26:00,73.5,71.7,29.80,SW,227,5.0,7.0,94,0.00,,,0.00,VWS V14.01,2013-08-23 14:26:00,
2013-08-23 09:31:00,73.7,71.6,29.80,SW,227,2.0,7.0,93,0.00,,,0.00,VWS V14.01,2013-08-23 14:31:00,
2013-08-23 09:36:00,73.7,70.6,29.81,SW,227,5.0,6.0,90,0.00,,,0.00,VWS V14.01,2013-08-23 14:36:00,
2013-08-23 09:41:00,74.0,70.6,29.81,SW,227,7.0,7.0,89,0.00,,,0.00,VWS V14.01,2013-08-23 14:41:00,
2013-08-23 09:46:00,74.6,70.5,29.81,SW,222,3.0,7.0,87,0.00,,,0.00,VWS V14.01,2013-08-23 14:46:00,
2013-08-23 09:51:00,74.9,70.4,29.80,SSW,199,5.0,7.0,86,0.00,,,0.00,VWS V14.01,2013-08-23 14:51:00,
2013-08-23 09:56:00,74.9,69.7,29.80,SSW,199,5.0,7.0,84,0.00,,,0.00,VWS V14.01,2013-08-23 14:56:00,
2013-08-23 10:01:00,75.3,70.5,29.80,SSW,199,3.0,7.0,85,0.00,,,0.00,VWS V14.01,2013-08-23 15:01:00,
2013-08-23 10:06:00,75.4,70.9,29.80,SSW,199,0.0,2.0,86,0.00,,,0.00,VWS V14.01,2013-08-23 15:06:00,
2013-08-23 10:11:00,75.8,69.6,29.80,SSW,200,0.0,7.0,81,0.00,,,0.00,VWS V14.01,2013-08-23 15:11:00,
2013-08-23 10:16:00,76.1,68.8,29.80,SSW,200,0.0,7.0,78,0.00,,,0.00,VWS V14.01,2013-08-23 15:16:00,
2013-08-23 10:21:00,76.5,70.2,29.80,SSW,200,0.0,0.0,81,0.00,,,0.00,VWS V14.01,2013-08-23 15:21:00,
2013-08-23 10:26:00,76.8,70.2,29.80,SSW,200,7.0,7.0,80,0.00,,,0.00,VWS V14.01,2013-08-23 15:26:00,
2013-08-23 10:31:00,77.4,66.4,29.80,SSW,200,6.0,8.0,69,0.00,,,0.00,VWS V14.01,2013-08-23 15:31:00,
2013-08-23 10:36:00,77.4,67.7,29.80,SSW,200,4.0,7.0,72,0.00,,,0.00,VWS V14.01,2013-08-23 15:36:00,
2013-08-23 10:41:00,77.7,67.1,29.80,SSW,200,2.0,7.0,70,0.00,,,0.00,VWS V14.01,2013-08-23 15:41:00,
2013-08-23 10:46:00,77.7,67.1,29.80,SSW,200,2.0,7.0,70,0.00,,,0.00,VWS V14.01,2013-08-23 15:46:00,
2013-08-23 10:51:00,77.9,67.3,29.80,SSW,200,2.0,5.0,70,0.00,,,0.00,VWS V14.01,2013-08-23 15:51:00,
2013-08-23 10:56:00,77.9,68.2,29.80,SSW,200,2.0,5.0,72,0.00,,,0.00,VWS V14.01,2013-08-23 15:56:00,
2013-08-23 11:01:00,77.9,68.9,29.80,ENE,76,2.0,5.0,74,0.00,,,0.00,VWS V14.01,2013-08-23 16:01:00,
2013-08-23 11:06:00,78.1,68.8,29.80,ENE,75,0.0,3.0,73,0.00,,,0.00,VWS V14.01,2013-08-23 16:06:00,
2013-08-23 11:11:00,78.5,69.5,29.80,ENE,75,0.0,3.0,74,0.00,,,0.00,VWS V14.01,2013-08-23 16:11:00,
2013-08-23 11:16:00,77.7,69.9,29.80,NE,56,2.0,5.0,77,0.00,,,0.00,VWS V14.01,2013-08-23 16:16:00,
2013-08-23 11:21:00,77.7,70.3,29.81,NE,55,1.0,3.0,78,0.00,,,0.00,VWS V14.01,2013-08-23 16:21:00,
2013-08-23 11:26:00,77.9,70.9,29.81,NE,55,0.0,5.0,79,0.00,,,0.00,VWS V14.01,2013-08-23 16:26:00,
2013-08-23 11:31:00,78.3,70.5,29.81,NE,55,0.0,5.0,77,0.00,,,0.00,VWS V14.01,2013-08-23 16:31:00,
2013-08-23 11:36:00,79.2,62.2,29.82,South,186,5.0,7.0,56,0.00,,,0.00,VWS V14.01,2013-08-23 16:36:00,
2013-08-23 11:41:00,80.3,62.7,29.82,SSW,202,6.0,10.0,55,0.00,,,0.00,VWS V14.01,2013-08-23 16:41:00,
2013-08-23 11:46:00,81.1,64.9,29.82,SSW,200,9.0,10.0,58,0.00,,,0.00,VWS V14.01,2013-08-23 16:46:00,
2013-08-23 11:51:00,81.4,65.2,29.81,SSW,196,6.0,10.0,58,0.00,,,0.00,VWS V14.01,2013-08-23 16:51:00,
2013-08-23 11:56:00,81.6,62.8,29.81,SSW,199,8.0,11.0,53,0.00,,,0.00,VWS V14.01,2013-08-23 16:56:00,
2013-08-23 12:01:00,81.8,63.0,29.81,SSW,195,7.0,11.0,53,0.00,,,0.00,VWS V14.01,2013-08-23 17:01:00,
2013-08-23 12:06:00,82.0,64.8,29.82,SSW,203,8.0,12.0,56,0.00,,,0.00,VWS V14.01,2013-08-23 17:06:00,
2013-08-23 12:11:00,82.2,65.0,29.82,South,186,5.0,12.0,56,0.00,,,0.00,VWS V14.01,2013-08-23 17:11:00,
2013-08-23 12:16:00,82.2,66.9,29.82,SSW,196,5.0,12.0,60,0.00,,,0.00,VWS V14.01,2013-08-23 17:16:00,
2013-08-23 12:21:00,82.4,68.1,29.82,South,188,8.0,10.0,62,0.00,,,0.00,VWS V14.01,2013-08-23 17:21:00,
2013-08-23 12:26:00,82.2,68.8,29.82,SSW,200,5.0,12.0,64,0.00,,,0.00,VWS V14.01,2013-08-23 17:26:00,
2013-08-23 12:31:00,82.0,67.2,29.82,SSW,196,4.0,12.0,61,0.00,,,0.00,VWS V14.01,2013-08-23 17:31:00,
2013-08-23 12:36:00,82.0,67.2,29.82,South,182,5.0,11.0,61,0.00,,,0.00,VWS V14.01,2013-08-23 17:36:00,
2013-08-23 12:41:00,82.0,66.3,29.82,South,189,5.0,11.0,59,0.00,,,0.00,VWS V14.01,2013-08-23 17:41:00,
2013-08-23 12:46:00,82.0,65.8,29.82,SSW,200,2.0,12.0,58,0.00,,,0.00,VWS V14.01,2013-08-23 17:46:00,
2013-08-23 12:51:00,81.8,65.6,29.81,SSW,203,3.0,8.0,58,0.00,,,0.00,VWS V14.01,2013-08-23 17:51:00,
2013-08-23 12:56:00,82.0,66.3,29.81,South,186,3.0,8.0,59,0.00,,,0.00,VWS V14.01,2013-08-23 17:56:00,
2013-08-23 13:01:00,82.6,66.8,29.81,South,186,6.0,8.0,59,0.00,,,0.00,VWS V14.01,2013-08-23 18:01:00,
2013-08-23 13:06:00,83.0,66.2,29.80,SSW,199,7.0,10.0,57,0.00,,,0.00,VWS V14.01,2013-08-23 18:06:00,
2013-08-23 13:11:00,83.2,63.8,29.80,South,191,7.0,11.0,52,0.00,,,0.00,VWS V14.01,2013-08-23 18:11:00,
2013-08-23 13:16:00,83.0,64.7,29.80,SSW,195,7.0,11.0,54,0.00,,,0.00,VWS V14.01,2013-08-23 18:16:00,
2013-08-23 13:21:00,83.0,64.1,29.81,SSW,192,3.0,7.0,53,0.00,,,0.00,VWS V14.01,2013-08-23 18:21:00,
2013-08-23 13:26:00,82.8,61.7,29.81,South,188,5.0,7.0,49,0.00,,,0.00,VWS V14.01,2013-08-23 18:26:00,
2013-08-23 13:31:00,82.8,60.5,29.81,South,189,2.0,8.0,47,0.00,,,0.00,VWS V14.01,2013-08-23 18:31:00,
2013-08-23 13:36:00,82.8,60.5,29.81,South,191,6.0,7.0,47,0.00,,,0.00,VWS V14.01,2013-08-23 18:36:00,
2013-08-23 13:41:00,82.6,60.9,29.81,SSW,195,5.0,8.0,48,0.00,,,0.00,VWS V14.01,2013-08-23 18:41:00,
2013-08-23 13:46:00,82.8,60.5,29.81,SSW,195,2.0,8.0,47,0.00,,,0.00,VWS V14.01,2013-08-23 18:46:00,
2013-08-23 13:51:00,82.8,58.7,29.80,SSW,195,2.0,5.0,44,0.00,,,0.00,VWS V14.01,2013-08-23 18:51:00,
2013-08-23 13:56:00,83.0,58.9,29.80,SSW,195,5.0,7.0,44,0.00,,,0.00,VWS V14.01,2013-08-23 18:56:00,
2013-08-23 14:01:00,83.4,60.5,29.80,SSW,192,3.0,7.0,46,0.00,,,0.00,VWS V14.01,2013-08-23 19:01:00,
2013-08-23 14:06:00,83.6,58.8,29.80,SSE,152,2.0,7.0,43,0.00,,,0.00,VWS V14.01,2013-08-23 19:06:00,
2013-08-23 14:11:00,84.1,58.5,29.80,SSE,160,2.0,7.0,42,0.00,,,0.00,VWS V14.01,2013-08-23 19:11:00,
2013-08-23 14:16:00,84.5,60.2,29.80,South,181,5.0,7.0,44,0.00,,,0.00,VWS V14.01,2013-08-23 19:16:00,
2013-08-23 14:21:00,84.5,60.2,29.79,South,186,0.0,3.0,44,0.00,,,0.00,VWS V14.01,2013-08-23 19:21:00,
2013-08-23 14:26:00,84.5,61.5,29.79,South,186,5.0,7.0,46,0.00,,,0.00,VWS V14.01,2013-08-23 19:26:00,
2013-08-23 14:31:00,84.5,63.3,29.79,South,191,6.0,7.0,49,0.00,,,0.00,VWS V14.01,2013-08-23 19:31:00,
2013-08-23 14:36:00,84.3,63.1,29.79,South,179,3.0,9.0,49,0.00,,,0.00,VWS V14.01,2013-08-23 19:36:00,
2013-08-23 14:41:00,84.1,61.7,29.79,South,184,2.0,9.0,47,0.00,,,0.00,VWS V14.01,2013-08-23 19:41:00,
2013-08-23 14:46:00,84.0,62.2,29.79,South,169,5.0,9.0,48,0.00,,,0.00,VWS V14.01,2013-08-23 19:46:00,
2013-08-23 14:51:00,83.8,61.4,29.77,South,172,0.0,10.0,47,0.00,,,0.00,VWS V14.01,2013-08-23 19:51:00,
2013-08-23 14:56:00,83.8,62.0,29.77,SSW,192,5.0,10.0,48,0.00,,,0.00,VWS V14.01,2013-08-23 19:56:00,
2013-08-23 15:01:00,83.8,62.6,29.77,SSW,198,5.0,10.0,49,0.00,,,0.00,VWS V14.01,2013-08-23 20:01:00,
2013-08-23 15:06:00,84.0,62.8,29.77,South,169,2.0,10.0,49,0.00,,,0.00,VWS V14.01,2013-08-23 20:06:00,
2013-08-23 15:11:00,84.0,62.2,29.77,SSE,158,3.0,10.0,48,0.00,,,0.00,VWS V14.01,2013-08-23 20:11:00,
2013-08-23 15:16:00,84.3,63.7,29.77,SSE,160,2.0,10.0,50,0.00,,,0.00,VWS V14.01,2013-08-23 20:16:00,
2013-08-23 15:21:00,84.7,64.0,29.76,SSE,161,2.0,6.0,50,0.00,,,0.00,VWS V14.01,2013-08-23 20:21:00,
2013-08-23 15:26:00,85.5,61.8,29.76,South,169,4.0,7.0,45,0.00,,,0.00,VWS V14.01,2013-08-23 20:26:00,
2013-08-23 15:31:00,85.5,62.4,29.76,SSW,193,6.0,7.0,46,0.00,,,0.00,VWS V14.01,2013-08-23 20:31:00,
2013-08-23 15:36:00,85.7,62.6,29.76,SSE,164,1.0,8.0,46,0.00,,,0.00,VWS V14.01,2013-08-23 20:36:00,
2013-08-23 15:41:00,85.7,62.6,29.76,SSW,196,5.0,10.0,46,0.00,,,0.00,VWS V14.01,2013-08-23 20:41:00,
2013-08-23 15:46:00,85.5,63.0,29.76,SSE,168,5.0,10.0,47,0.00,,,0.00,VWS V14.01,2013-08-23 20:46:00,
2013-08-23 15:51:00,85.5,64.2,29.75,SSE,157,3.0,7.0,49,0.00,,,0.00,VWS V14.01,2013-08-23 20:51:00,
2013-08-23 15:56:00,85.3,63.4,29.75,SSE,164,1.0,7.0,48,0.00,,,0.00,VWS V14.01,2013-08-23 20:56:00,
2013-08-23 16:01:00,85.1,63.8,29.75,South,181,2.0,7.0,49,0.00,,,0.00,VWS V14.01,2013-08-23 21:01:00,
2013-08-23 16:06:00,85.3,64.6,29.74,South,179,6.0,7.0,50,0.00,,,0.00,VWS V14.01,2013-08-23 21:06:00,
2013-08-23 16:11:00,85.5,64.8,29.74,East,90,5.0,7.0,50,0.00,,,0.00,VWS V14.01,2013-08-23 21:11:00,
2013-08-23 16:16:00,85.7,66.6,29.74,ENE,71,2.0,7.0,53,0.00,,,0.00,VWS V14.01,2013-08-23 21:16:00,
2013-08-23 16:21:00,86.1,63.5,29.74,SSE,155,4.0,12.0,47,0.00,,,0.00,VWS V14.01,2013-08-23 21:21:00,
2013-08-23 16:26:00,86.1,65.3,29.74,SSW,199,5.0,12.0,50,0.00,,,0.00,VWS V14.01,2013-08-23 21:26:00,
2013-08-23 16:31:00,86.3,64.9,29.74,South,172,2.0,13.0,49,0.00,,,0.00,VWS V14.01,2013-08-23 21:31:00,
2013-08-23 16:36:00,86.5,63.3,29.73,SSE,148,2.0,7.0,46,0.00,,,0.00,VWS V14.01,2013-08-23 21:36:00,
2013-08-23 16:41:00,86.5,64.5,29.73,SE,134,1.0,7.0,48,0.00,,,0.00,VWS V14.01,2013-08-23 21:41:00,
2013-08-23 16:46:00,86.5,65.1,29.73,South,191,2.0,16.0,49,0.00,,,0.00,VWS V14.01,2013-08-23 21:46:00,
2013-08-23 16:51:00,86.7,65.3,29.72,South,184,2.0,8.0,49,0.00,,,0.00,VWS V14.01,2013-08-23 21:51:00,
2013-08-23 16:56:00,86.7,66.4,29.72,South,189,0.0,13.0,51,0.00,,,0.00,VWS V14.01,2013-08-23 21:56:00,
2013-08-23 17:01:00,86.5,67.3,29.72,SE,128,5.0,13.0,53,0.00,,,0.00,VWS V14.01,2013-08-23 22:01:00,
2013-08-23 17:06:00,86.7,65.3,29.72,SSE,164,1.0,6.0,49,0.00,,,0.00,VWS V14.01,2013-08-23 22:06:00,
2013-08-23 17:11:00,87.0,63.7,29.72,SSE,162,2.0,6.0,46,0.00,,,0.00,VWS V14.01,2013-08-23 22:11:00,
2013-08-23 17:16:00,87.4,62.8,29.72,SSE,164,2.0,10.0,44,0.00,,,0.00,VWS V14.01,2013-08-23 22:16:00,
2013-08-23 17:21:00,86.7,67.0,29.72,ESE,103,1.0,6.0,52,0.00,,,0.00,VWS V14.01,2013-08-23 22:21:00,
2013-08-23 17:26:00,85.9,67.3,29.72,NE,49,2.0,7.0,54,0.00,,,0.00,VWS V14.01,2013-08-23 22:26:00,
2013-08-23 17:31:00,85.7,66.6,29.72,ENE,69,0.0,7.0,53,0.00,,,0.00,VWS V14.01,2013-08-23 22:31:00,
2013-08-23 17:36:00,85.5,67.0,29.71,ENE,69,2.0,2.0,54,0.00,,,0.00,VWS V14.01,2013-08-23 22:36:00,
2013-08-23 17:41:00,85.9,67.3,29.71,South,182,0.0,6.0,54,0.00,,,0.00,VWS V14.01,2013-08-23 22:41:00,
2013-08-23 17:46:00,86.3,61.8,29.71,SSE,147,6.0,8.0,44,0.00,,,0.00,VWS V14.01,2013-08-23 22:46:00,
2013-08-23 17:51:00,86.7,62.8,29.71,SE,143,2.0,6.0,45,0.00,,,0.00,VWS V14.01,2013-08-23 22:51:00,
2013-08-23 17:56:00,87.0,62.5,29.71,SE,144,2.0,10.0,44,0.00,,,0.00,VWS V14.01,2013-08-23 22:56:00,
2013-08-23 18:01:00,87.0,61.8,29.71,SW,236,1.0,10.0,43,0.00,,,0.00,VWS V14.01,2013-08-23 23:01:00,
2013-08-23 18:06:00,86.7,62.8,29.71,SSE,162,5.0,9.0,45,0.00,,,0.00,VWS V14.01,2013-08-23 23:06:00,
2013-08-23 18:11:00,86.5,62.7,29.71,SE,127,0.0,9.0,45,0.00,,,0.00,VWS V14.01,2013-08-23 23:11:00,
2013-08-23 18:16:00,86.5,63.3,29.71,SSE,164,4.0,9.0,46,0.00,,,0.00,VWS V14.01,2013-08-23 23:16:00,
2013-08-23 18:21:00,86.3,64.9,29.70,South,176,8.0,8.0,49,0.00,,,0.00,VWS V14.01,2013-08-23 23:21:00,
2013-08-23 18:26:00,86.1,64.1,29.70,SSW,198,1.0,8.0,48,0.00,,,0.00,VWS V14.01,2013-08-23 23:26:00,
2013-08-23 18:31:00,86.1,65.9,29.70,South,182,5.0,10.0,51,0.00,,,0.00,VWS V14.01,2013-08-23 23:31:00,
2013-08-23 18:36:00,86.1,65.9,29.70,South,182,0.0,5.0,51,0.00,,,0.00,VWS V14.01,2013-08-23 23:36:00,
2013-08-23 18:41:00,85.7,66.6,29.70,South,182,0.0,5.0,53,0.00,,,0.00,VWS V14.01,2013-08-23 23:41:00,
2013-08-23 18:46:00,85.3,67.3,29.70,SSE,154,0.0,5.0,55,0.00,,,0.00,VWS V14.01,2013-08-23 23:46:00,
2013-08-23 18:51:00,85.1,68.2,29.70,NE,37,0.0,5.0,57,0.00,,,0.00,VWS V14.01,2013-08-23 23:51:00,
2013-08-23 18:56:00,84.7,68.3,29.70,South,179,0.0,7.0,58,0.00,,,0.00,VWS V14.01,2013-08-23 23:56:00,
2013-08-23 19:01:00,84.3,68.4,29.70,SSE,154,0.0,7.0,59,0.00,,,0.00,VWS V14.01,2013-08-24 00:01:00,
2013-08-23 19:06:00,84.1,68.2,29.70,South,185,1.0,7.0,59,0.00,,,0.00,VWS V14.01,2013-08-24 00:06:00,
2013-08-23 19:11:00,84.0,68.6,29.70,South,175,5.0,7.0,60,0.00,,,0.00,VWS V14.01,2013-08-24 00:11:00,
2013-08-23 19:16:00,84.0,69.6,29.70,South,174,1.0,7.0,62,0.00,,,0.00,VWS V14.01,2013-08-24 00:16:00,
2013-08-23 19:21:00,83.6,69.7,29.69,South,179,1.0,7.0,63,0.00,,,0.00,VWS V14.01,2013-08-24 00:21:00,
2013-08-23 19:26:00,83.4,69.5,29.69,South,179,0.0,7.0,63,0.00,,,0.00,VWS V14.01,2013-08-24 00:26:00,
2013-08-23 19:31:00,83.2,69.8,29.69,South,186,2.0,7.0,64,0.00,,,0.00,VWS V14.01,2013-08-24 00:31:00,
2013-08-23 19:36:00,83.0,70.0,29.70,South,186,0.0,2.0,65,0.00,,,0.00,VWS V14.01,2013-08-24 00:36:00,
2013-08-23 19:41:00,82.6,70.5,29.70,NE,55,0.0,6.0,67,0.00,,,0.00,VWS V14.01,2013-08-24 00:41:00,
2013-08-23 19:46:00,82.6,70.1,29.70,SSE,167,2.0,6.0,66,0.00,,,0.00,VWS V14.01,2013-08-24 00:46:00,
2013-08-23 19:51:00,82.2,70.2,29.69,ENE,68,0.0,3.0,67,0.00,,,0.00,VWS V14.01,2013-08-24 00:51:00,
2013-08-23 19:56:00,81.8,70.6,29.69,East,83,0.0,10.0,69,0.00,,,0.00,VWS V14.01,2013-08-24 00:56:00,
2013-08-23 20:01:00,81.6,70.9,29.69,South,188,0.0,10.0,70,0.00,,,0.00,VWS V14.01,2013-08-24 01:01:00,
2013-08-23 20:06:00,81.4,70.7,29.69,South,188,0.0,2.0,70,0.00,,,0.00,VWS V14.01,2013-08-24 01:06:00,
2013-08-23 20:11:00,81.1,71.2,29.69,South,188,1.0,5.0,72,0.00,,,0.00,VWS V14.01,2013-08-24 01:11:00,
2013-08-23 20:16:00,80.9,71.0,29.69,South,184,0.0,5.0,72,0.00,,,0.00,VWS V14.01,2013-08-24 01:16:00,
2013-08-23 20:21:00,80.7,70.8,29.68,South,184,0.0,3.0,72,0.00,,,0.00,VWS V14.01,2013-08-24 01:21:00,
2013-08-23 20:26:00,80.3,71.3,29.68,South,184,1.0,3.0,74,0.00,,,0.00,VWS V14.01,2013-08-24 01:26:00,
2013-08-23 20:31:00,79.9,71.3,29.68,East,95,0.0,5.0,75,0.00,,,0.00,VWS V14.01,2013-08-24 01:31:00,
2013-08-23 20:36:00,79.8,71.9,29.69,South,181,5.0,5.0,77,0.00,,,0.00,VWS V14.01,2013-08-24 01:36:00,
2013-08-23 20:41:00,79.4,71.9,29.69,South,181,1.0,5.0,78,0.00,,,0.00,VWS V14.01,2013-08-24 01:41:00,
2013-08-23 20:46:00,79.2,72.1,29.69,South,181,0.0,5.0,79,0.00,,,0.00,VWS V14.01,2013-08-24 01:46:00,
2013-08-23 20:51:00,78.8,72.1,29.69,South,181,0.0,4.0,80,0.00,,,0.00,VWS V14.01,2013-08-24 01:51:00,
2013-08-23 20:56:00,78.6,72.3,29.69,South,181,2.0,5.0,81,0.00,,,0.00,VWS V14.01,2013-08-24 01:56:00,
2013-08-23 21:01:00,78.5,72.2,29.69,South,181,0.0,5.0,81,0.00,,,0.00,VWS V14.01,2013-08-24 02:01:00,
2013-08-23 21:06:00,78.5,72.2,29.70,South,182,1.0,4.0,81,0.00,,,0.00,VWS V14.01,2013-08-24 02:06:00,
2013-08-23 21:11:00,78.5,71.8,29.70,SSE,155,2.0,4.0,80,0.00,,,0.00,VWS V14.01,2013-08-24 02:11:00,
2013-08-23 21:16:00,78.6,71.9,29.70,South,189,2.0,5.0,80,0.00,,,0.00,VWS V14.01,2013-08-24 02:16:00,
2013-08-23 21:21:00,78.6,72.3,29.70,SSW,195,1.0,6.0,81,0.00,,,0.00,VWS V14.01,2013-08-24 02:21:00,
2013-08-23 21:26:00,78.8,72.5,29.70,SE,130,4.0,7.0,81,0.00,,,0.00,VWS V14.01,2013-08-24 02:26:00,
2013-08-23 21:31:00,78.8,72.5,29.70,SSW,192,0.0,10.0,81,0.00,,,0.00,VWS V14.01,2013-08-24 02:31:00,
2013-08-23 21:36:00,78.8,72.1,29.70,SSW,203,1.0,8.0,80,0.00,,,0.00,VWS V14.01,2013-08-24 02:36:00,
2013-08-23 21:41:00,78.8,72.5,29.70,SE,136,2.0,8.0,81,0.00,,,0.00,VWS V14.01,2013-08-24 02:41:00,
2013-08-23 21:46:00,78.6,72.3,29.70,SSE,157,2.0,8.0,81,0.00,,,0.00,VWS V14.01,2013-08-24 02:46:00,
2013-08-23 21:51:00,78.5,72.2,29.71,SSE,162,0.0,5.0,81,0.00,,,0.00,VWS V14.01,2013-08-24 02:51:00,
2013-08-23 21:56:00,78.5,72.9,29.71,SSE,162,1.0,5.0,83,0.00,,,0.00,VWS V14.01,2013-08-24 02:56:00,
2013-08-23 22:01:00,78.3,72.4,29.71,SSE,162,1.0,5.0,82,0.00,,,0.00,VWS V14.01,2013-08-24 03:01:00,
2013-08-23 22:06:00,78.3,73.1,29.72,WSW,246,0.0,5.0,84,0.00,,,0.00,VWS V14.01,2013-08-24 03:06:00,
2013-08-23 22:11:00,78.1,72.9,29.72,SSW,212,0.0,5.0,84,0.00,,,0.00,VWS V14.01,2013-08-24 03:11:00,
2013-08-23 22:16:00,77.9,73.4,29.72,SSW,209,1.0,5.0,86,0.00,,,0.00,VWS V14.01,2013-08-24 03:16:00,
2013-08-23 22:21:00,77.9,73.4,29.71,SSW,193,0.0,5.0,86,0.00,,,0.00,VWS V14.01,2013-08-24 03:21:00,
2013-08-23 22:26:00,77.7,73.2,29.71,SSE,168,0.0,7.0,86,0.00,,,0.00,VWS V14.01,2013-08-24 03:26:00,
2013-08-23 22:31:00,77.7,73.2,29.71,SSW,192,1.0,7.0,86,0.00,,,0.00,VWS V14.01,2013-08-24 03:31:00,
2013-08-23 22:36:00,77.7,73.5,29.71,South,191,1.0,7.0,87,0.00,,,0.00,VWS V14.01,2013-08-24 03:36:00,
2013-08-23 22:41:00,77.6,73.4,29.71,SSW,200,0.0,8.0,87,0.00,,,0.00,VWS V14.01,2013-08-24 03:41:00,
2013-08-23 22:46:00,77.6,73.1,29.71,SSE,165,1.0,11.0,86,0.00,,,0.00,VWS V14.01,2013-08-24 03:46:00,
2013-08-23 22:51:00,77.6,73.4,29.71,South,179,3.0,6.0,87,0.00,,,0.00,VWS V14.01,2013-08-24 03:51:00,
2013-08-23 22:56:00,77.4,73.2,29.71,South,186,0.0,6.0,87,0.00,,,0.00,VWS V14.01,2013-08-24 03:56:00,
2013-08-23 23:01:00,77.4,73.2,29.71,South,186,2.0,6.0,87,0.00,,,0.00,VWS V14.01,2013-08-24 04:01:00,
2013-08-23 23:06:00,77.2,73.4,29.71,SSW,205,1.0,5.0,88,0.00,,,0.00,VWS V14.01,2013-08-24 04:06:00,
2013-08-23 23:11:00,77.0,73.5,29.71,South,184,2.0,7.0,89,0.00,,,0.00,VWS V14.01,2013-08-24 04:11:00,
2013-08-23 23:16:00,77.0,73.2,29.71,South,184,3.0,7.0,88,0.00,,,0.00,VWS V14.01,2013-08-24 04:16:00,
2013-08-23 23:21:00,77.0,72.5,29.70,South,175,3.0,6.0,86,0.00,,,0.00,VWS V14.01,2013-08-24 04:21:00,
2013-08-23 23:26:00,76.8,73.0,29.70,South,186,1.0,7.0,88,0.00,,,0.00,VWS V14.01,2013-08-24 04:26:00,
2013-08-23 23:31:00,76.8,72.6,29.70,SSW,200,3.0,7.0,87,0.00,,,0.00,VWS V14.01,2013-08-24 04:31:00,
2013-08-23 23:36:00,76.8,73.0,29.70,SSW,212,2.0,10.0,88,0.00,,,0.00,VWS V14.01,2013-08-24 04:36:00,
2013-08-23 23:41:00,76.8,71.9,29.70,South,189,5.0,10.0,85,0.00,,,0.00,VWS V14.01,2013-08-24 04:41:00,
2013-08-23 23:46:00,76.8,72.3,29.70,South,191,2.0,10.0,86,0.00,,,0.00,VWS V14.01,2013-08-24 04:46:00,
2013-08-23 23:51:00,76.7,72.5,29.71,South,185,4.0,7.0,87,0.00,,,0.00,VWS V14.01,2013-08-24 04:51:00,
2013-08-23 23:56:00,76.7,72.2,29.71,South,178,4.0,10.0,86,0.00,,,0.00,VWS V14.01,2013-08-24 04:56:00,